sat.trackr.live / text

‹ back to catalog

STARLINK-6113

NORAD 56113 · 2023-046W

PAYLOAD ACTIVE UNKNOWN

§ Identity

Operator
Country
US
Launch date
2023-03-29
Launch site
AFETR
Launch vehicle
Mass (kg)
RCS (m²)

Purposes: comms

External: N2YO · Heavens-Above · Gunter

§ Orbital elements

Epoch: 2026-05-25T02:45:00.831744Z

Period
94.27 min
Inclination
43.0064°
Eccentricity
0.0001455
Mean motion
15.27572876 rev/d
Perigee alt
482.1 km
Apogee alt
484.1 km
Semi-major
6,861.2 km
B*
1.4405e-5
RAAN
89.6036°
Arg perigee
267.8548°
Mean anomaly
92.2137°
Rev number
17,372

§ Raw data

STARLINK-61131 56113U 23046W   26145.11459296  .00000134  00000+0  14405-4 0  99912 56113  43.0064  89.6036 0001455 267.8548  92.2137 15.27572876173726

JSON: /api/v1/satellites/56113 · /tle

For live sub-satellite position, see the globe view (requires WebGL).

§ Visibility from observer

Set your observer location to see the next 7 days of passes ≥ 10°. The values pass through the URL so the page stays shareable.

No JS? Fill the form by hand. The geolocation button needs JavaScript.